"2009-08-02 00:00:00",1114849,5.96,134.2,1.588,0.199,19.32,109.0496,22.45,23.49,31.73,0,111.1,13.15,23.28,96.2
"2009-08-02 00:00:30",1114850,5.909,139,2.79,0.219,19.36,109.0463,22.44,23.48,32.05,0,111.1,13.15,23.28,101.0
"2009-08-02 00:01:00",1114851,4.737,142.7,1.638,0.507,19.28,109.0503,22.46,23.49,31.93,0,111.1,13.15,23.29,104.7
"2009-08-02 00:01:30",1114852,4.066,141.7,3.787,0.213,19.27,109.0505,22.46,23.49,31.82,0,111.1,13.15,23.29,103.7
"2009-08-02 00:02:00",1114853,4.628,141.8,3.771,0.321,19.25,109.0532,22.46,23.5,31.86,0,111.1,13.15,23.29,103.8
"2009-08-02 00:02:30",1114854,4.73,138.8,1.6,0.131,19.22,109.0546,22.47,23.5,31.82,0,111.1,13.15,23.30,100.8
"2009-08-02 00:03:00",1114855,5.266,139.2,2.353,0.173,19.24,109.054,22.46,23.5,31.68,0,111.1,13.15,23.30,101.2
"2009-08-02 00:03:30",1114856,5.369,142.4,1.224,0.149,19.32,109.0527,22.46,23.5,31.64,0,111.1,13.15,23.29,104.4
"2009-08-02 00:04:00",1114857,5.106,146.2,2.001,0.284,19.32,109.054,22.46,23.49,31.7,0,111.1,13.15,23.30,108.2
"2009-08-02 00:04:30",1114858,4.471,145.5,1.48,0.124,19.32,109.0509,22.46,23.5,31.72,0,111.1,13.15,23.29,107.5
"2009-08-02 00:05:00",1114859,5.033,145.9,8.55,0.369,19.33,109.0523,22.46,23.49,31.8,0,111.1,13.15,23.29,107.9
"2009-08-02 00:05:30",1114860,5.768,153.7,4.81,0.283,19.46,109.056,22.47,23.49,31.93,0,111.1,13.15,23.30,115.7
"2009-08-02 00:06:00",1114861,4.994,164.3,4.317,0.472,19.38,109.0561,22.47,23.5,31.91,0,111.1,13.15,23.30,126.3
"2009-08-02 00:06:30",1114862,4.408,164.7,4.101,0.362,19.3,109.0571,22.47,23.49,31.78,0,111.1,13.14,23.30,126.7
"2009-08-02 00:07:00",1114863,4.643,158.9,11.08,0.622,19.41,109.0586,22.48,23.49,32,0,111.1,13.14,23.31,120.9
"2009-08-02 00:07:30",1114864,5.038,152.2,5.728,0.441,19.4,109.0606,22.48,23.5,32.05,0,111.1,13.14,23.31,114.2
"2009-08-02 00:08:00",1114865,5.235,142.8,4.512,0.466,19.39,109.0623,22.49,23.51,31.94,0,111.1,13.14,23.32,104.8
"2009-08-02 00:08:30",1114866,5.536,142.6,3.405,0.302,19.42,109.0626,22.49,23.5,32,0,111.1,13.14,23.32,104.6
"2009-08-02 00:09:00",1114867,5.322,139,5.842,0.493,19.49,109.0641,22.49,23.5,32.16,0,111.1,13.14,23.32,101.0
"2009-08-02 00:09:30",1114868,5.032,141.4,6.278,0.547,19.5,109.0615,22.48,23.5,32.14,0,111.1,13.14,23.31,103.4
"2009-08-02 00:10:00",1114869,4.259,142.5,6.78,0.351,19.51,109.0548,22.47,23.49,32.2,0,111.1,13.14,23.30,104.5
"2009-08-02 00:10:30",1114870,4.526,140.8,5.171,0.271,19.51,109.054,22.46,23.45,32.31,0,111.1,13.14,23.30,102.8
"2009-08-02 00:11:00",1114871,4.262,133.3,8.42,0.555,19.4,109.0402,22.43,23.44,32.28,0,111.1,13.14,23.26,95.3
"2009-08-02 00:11:30",1114872,4.235,136.4,3.391,0.301,19.37,109.0419,22.43,23.42,32.12,0,111.1,13.14,23.26,98.4
"2009-08-02 00:12:00",1114873,3.812,141.5,4.708,0.303,19.36,109.0466,22.45,23.41,32.09,0,111.1,13.14,23.28,103.5
"2009-08-02 00:12:30",1114874,4.393,141.5,3.658,0.466,19.32,109.054,22.46,23.41,31.87,0,111.1,13.14,23.30,103.5
"2009-08-02 00:13:00",1114875,5.684,138.6,2.638,0.215,19.29,109.0569,22.47,23.41,31.71,0,111.1,13.14,23.30,100.6
"2009-08-02 00:13:30",1114876,5.462,142.9,2.264,0.232,19.4,109.0563,22.47,23.42,31.65,0,111.1,13.14,23.30,104.9
"2009-08-02 00:14:00",1114877,4.773,134.1,4.715,0.232,19.39,109.0557,22.47,23.44,31.69,0,111.1,13.15,23.30,96.1
"2009-08-02 00:14:30",1114878,4.794,144.1,4.275,0.275,19.41,109.0566,22.47,23.45,31.59,0,111.1,13.15,23.30,106.1
"2009-08-02 00:15:00",1114879,4.926,137.9,4.356,0.223,19.41,109.0599,22.48,23.45,31.61,0,111.1,13.15,23.31,99.9
"2009-08-02 00:15:30",1114880,5.327,146.3,2.779,0.166,19.41,109.065,22.49,23.46,31.61,0,111.1,13.15,23.32,108.3
"2009-08-02 00:16:00",1114881,5.248,140.7,3.713,0.338,19.43,109.0695,22.5,23.47,31.54,0,111.1,13.15,23.34,102.7
"2009-08-02 00:16:30",1114882,5.006,144.1,1.983,0.16,19.44,109.0836,22.54,23.48,31.57,0,111.1,13.15,23.37,106.1
"2009-08-02 00:17:00",1114883,5.124,150.4,2.643,0.218,19.48,109.0898,22.56,23.48,31.48,0,111.1,13.15,23.39,112.4
"2009-08-02 00:17:30",1114884,5.234,150.7,2.568,0.15,19.43,109.0909,22.56,23.49,31.4,0,111.1,13.15,23.39,112.7
"2009-08-02 00:18:00",1114885,5.491,142.1,4.54,0.491,19.48,109.0909,22.56,23.51,31.46,0,111.1,13.15,23.39,104.1
"2009-08-02 00:18:30",1114886,4.777,135.8,3.961,0.293,19.43,109.0906,22.56,23.52,31.46,0,111.1,13.15,23.39,97.8
"2009-08-02 00:19:00",1114887,4.397,137.6,3.07,0.451,19.43,109.0909,22.56,23.53,31.5,0,111.1,13.15,23.39,99.6
"2009-08-02 00:19:30",1114888,4.433,140.1,2.778,0.563,19.43,109.0909,22.56,23.52,31.6,0,111.1,13.15,23.39,102.1
"2009-08-02 00:20:00",1114889,4.32,149.8,5.447,0.192,19.43,109.0909,22.56,23.55,31.52,0,111.1,13.15,23.39,111.8
"2009-08-02 00:20:30",1114890,4.454,136.3,5.79,0.361,19.44,109.0912,22.56,23.55,31.75,0,111.1,13.15,23.39,98.3
"2009-08-02 00:21:00",1114891,4.68,147.9,3.496,0.352,19.44,109.094,22.57,23.55,31.58,0,111.1,13.15,23.40,109.9
"2009-08-02 00:21:30",1114892,5.444,129.5,6.34,0.533,19.46,109.0977,22.58,23.56,31.5,0,111.1,13.15,23.41,91.5
"2009-08-02 00:22:00",1114893,5.645,133.1,6.129,0.417,19.43,109.0988,22.58,23.56,31.28,0,111.1,13.15,23.41,95.1
"2009-08-02 00:22:30",1114894,5.127,140.8,3.631,0.213,19.46,109.0993,22.58,23.56,31.43,0,111.1,13.15,23.41,102.8
"2009-08-02 00:23:00",1114895,4.754,137.9,3.285,0.243,19.41,109.0993,22.58,23.57,31.16,0,111.1,13.15,23.41,99.9
"2009-08-02 00:23:30",1114896,4.857,133.4,2.75,0.149,19.43,109.0999,22.58,23.57,31.12,0,111.1,13.15,23.41,95.4
"2009-08-02 00:24:00",1114897,4.782,131.3,3.86,0.124,19.42,109.1008,22.58,23.59,31.03,0,111.1,13.14,23.42,93.3
"2009-08-02 00:24:30",1114898,4.854,133.7,4.736,0.163,19.44,109.1008,22.58,23.58,31.02,0,111.1,13.14,23.42,95.7
"2009-08-02 00:25:00",1114899,4.87,134.1,2.477,0.155,19.46,109.1002,22.58,23.58,31.02,0,111,13.14,23.41,96.1
"2009-08-02 00:25:30",1114900,5.031,130.7,1.457,0.102,19.45,109.1008,22.58,23.6,30.93,0,111,13.14,23.42,92.7
"2009-08-02 00:26:00",1114901,4.908,125.9,2.505,0.144,19.49,109.0999,22.58,23.59,30.83,0,111,13.14,23.41,87.9
"2009-08-02 00:26:30",1114902,4.597,135.1,1.721,0.14,19.45,109.0996,22.58,23.58,30.92,0,111.1,13.14,23.41,97.1
"2009-08-02 00:27:00",1114903,4.446,135.1,1.425,0.168,19.45,109.0991,22.58,23.6,31,0,111.1,13.14,23.41,97.1
"2009-08-02 00:27:30",1114904,4.766,129.9,2.808,0.129,19.46,109.0969,22.57,23.59,30.88,0,111,13.14,23.41,91.9
"2009-08-02 00:28:00",1114905,4.666,130.6,1.56,0.2,19.45,109.0951,22.57,23.59,30.88,0,111,13.14,23.40,92.6
"2009-08-02 00:28:30",1114906,4.387,136,1.383,0.242,19.43,109.0924,22.56,23.6,30.89,0,111.1,13.14,23.39,98.0
"2009-08-02 00:29:00",1114907,4.991,139.9,1.379,0.215,19.47,109.0915,22.56,23.59,30.99,0,111,13.14,23.39,101.9
"2009-08-02 00:29:30",1114908,5.123,138.7,1.499,0.272,19.45,109.0921,22.56,23.58,31.03,0,111,13.14,23.39,100.7
"2009-08-02 00:30:00",1114909,4.62,140.6,1.861,0.162,19.47,109.0918,22.56,23.58,31.08,0,111,13.14,23.39,102.6
"2009-08-02 00:30:30",1114910,5.147,135.9,1.565,0.144,19.5,109.0915,22.56,23.57,31.14,0,111,13.15,23.39,97.9
"2009-08-02 00:31:00",1114911,4.596,136.3,3.872,0.16,19.49,109.0915,22.56,23.57,31.11,0,111,13.15,23.39,98.3
"2009-08-02 00:31:30",1114912,4.457,133.8,1.718,0.208,19.5,109.0949,22.57,23.6,31.08,0,111,13.15,23.40,95.8
"2009-08-02 00:32:00",1114913,4.419,141.5,3.432,0.228,19.49,109.0963,22.57,23.58,31.12,0,111,13.15,23.40,103.5
"2009-08-02 00:32:30",1114914,5.037,136,1.683,0.196,19.5,109.0999,22.58,23.6,31.23,0,111.1,13.15,23.41,98.0
"2009-08-02 00:33:00",1114915,4.522,138.5,3.476,0.245,19.54,109.1018,22.59,23.59,31.29,0,111,13.15,23.42,100.5
"2009-08-02 00:33:30",1114916,4.24,137.8,10.6,0.44,19.57,109.1035,22.59,23.6,31.2,0,111,13.15,23.42,99.8
"2009-08-02 00:34:00",1114917,4.861,142,8.28,0.539,19.56,109.1108,22.61,23.59,31.27,0,111,13.15,23.44,104.0
"2009-08-02 00:34:30",1114918,5.235,133.7,4.867,0.24,19.58,109.1125,22.61,23.62,31.15,0,111,13.15,23.45,95.7
"2009-08-02 00:35:00",1114919,4.591,155.3,5.38,0.346,19.67,109.1138,22.62,23.61,31.39,0,111,13.15,23.45,117.3
"2009-08-02 00:35:30",1114920,4.513,150.7,9.92,0.313,19.61,109.1198,22.63,23.61,31.47,0,111,13.15,23.46,112.7
"2009-08-02 00:36:00",1114921,5.201,150.1,7.519,0.281,19.62,109.1228,22.64,23.62,31.47,0,111.1,13.15,23.47,112.1
"2009-08-02 00:36:30",1114922,4.966,156.9,3.183,0.275,19.59,109.126,22.65,23.62,31.24,0,111.1,13.15,23.48,118.9
"2009-08-02 00:37:00",1114923,4.481,155,6.173,0.352,19.54,109.1267,22.65,23.63,31.19,0,111,13.15,23.48,117.0
"2009-08-02 00:37:30",1114924,4.538,143.5,5.565,0.162,19.46,109.1271,22.65,23.64,30.89,0,111,13.15,23.48,105.5
"2009-08-02 00:38:00",1114925,4.668,131.7,1.767,0.192,19.51,109.128,22.65,23.63,30.78,0,111,13.15,23.49,93.7
"2009-08-02 00:38:30",1114926,4.319,131.3,1.531,0.196,19.51,109.128,22.65,23.64,30.71,0,111,13.15,23.49,93.3
"2009-08-02 00:39:00",1114927,4.938,130,2.361,0.484,19.52,109.1286,22.66,23.66,30.61,0,111,13.15,23.49,92.0
"2009-08-02 00:39:30",1114928,5.369,130.1,3.165,0.139,19.57,109.1292,22.66,23.64,30.61,0,111,13.15,23.49,92.1
"2009-08-02 00:40:00",1114929,5.196,129.8,4.312,0.258,19.61,109.1301,22.66,23.64,30.76,0,111,13.15,23.49,91.8
"2009-08-02 00:40:30",1114930,5.071,136.1,2.871,0.196,19.61,109.1295,22.66,23.64,30.79,0,111,13.15,23.49,98.1
"2009-08-02 00:41:00",1114931,5.826,143.2,4.089,0.508,19.66,109.1301,22.66,23.64,30.83,0,111,13.14,23.49,105.2
"2009-08-02 00:41:30",1114932,5.559,139.9,1.437,0.243,19.66,109.1323,22.67,23.65,30.83,0,111,13.14,23.50,101.9
"2009-08-02 00:42:00",1114933,5.109,139.8,1.318,0.152,19.64,109.1326,22.67,23.64,30.79,0,111,13.14,23.50,101.8
"2009-08-02 00:42:30",1114934,5.118,142.1,2.045,0.133,19.64,109.1329,22.67,23.65,30.81,0,111,13.14,23.50,104.1
"2009-08-02 00:43:00",1114935,5.25,145.7,3.422,0.124,19.66,109.1323,22.67,23.64,30.78,0,111,13.14,23.50,107.7
"2009-08-02 00:43:30",1114936,4.836,150.3,3.073,0.146,19.65,109.1332,22.67,23.64,30.88,0,111,13.14,23.50,112.3
"2009-08-02 00:44:00",1114937,4.736,142.3,3.266,0.158,19.62,109.1305,22.66,23.65,30.89,0,111,13.14,23.49,104.3
"2009-08-02 00:44:30",1114938,4.673,143.7,1.818,0.149,19.64,109.1317,22.66,23.65,30.99,0,111,13.14,23.50,105.7
"2009-08-02 00:45:00",1114939,5.101,143.1,2.429,0.224,19.65,109.1301,22.66,23.65,31.07,0,111,13.14,23.49,105.1
"2009-08-02 00:45:30",1114940,5.093,151.4,1.873,0.154,19.69,109.1273,22.65,23.64,31.13,0,111,13.14,23.48,113.4
"2009-08-02 00:46:00",1114941,4.828,146.2,4.214,0.352,19.62,109.1265,22.65,23.65,31.05,0,111,13.14,23.48,108.2
"2009-08-02 00:46:30",1114942,4.868,146.4,3.243,0.512,19.67,109.1268,22.65,23.63,31.01,0,111,13.14,23.48,108.4
"2009-08-02 00:47:00",1114943,4.359,145.7,1.907,0.176,19.67,109.1287,22.66,23.65,31.09,0,111,13.15,23.49,107.7
"2009-08-02 00:47:30",1114944,4.911,146.2,3.659,0.294,19.72,109.1321,22.67,23.65,31.19,0,111,13.15,23.50,108.2
"2009-08-02 00:48:00",1114945,4.989,145,1.936,0.177,19.66,109.1335,22.67,23.64,30.98,0,111,13.15,23.50,107.0
"2009-08-02 00:48:30",1114946,3.517,152.3,7.298,0.511,19.76,109.1335,22.67,23.64,31.24,0,111,13.15,23.50,114.3
"2009-08-02 00:49:00",1114947,4.599,150.2,3.492,0.249,19.64,109.1335,22.67,23.64,31.06,0,111,13.15,23.50,112.2
"2009-08-02 00:49:30",1114948,4.526,150.2,2.106,0.126,19.59,109.1338,22.67,23.63,30.74,0,111,13.15,23.50,112.2
"2009-08-02 00:50:00",1114949,4.748,147.9,2.347,0.13,19.61,109.1338,22.67,23.65,30.63,0,111,13.15,23.50,109.9
"2009-08-02 00:50:30",1114950,4.676,147.4,3.366,0.167,19.62,109.1338,22.67,23.65,30.8,0,111,13.15,23.50,109.4
"2009-08-02 00:51:00",1114951,4.567,146,2.585,0.245,19.64,109.1338,22.67,23.65,30.9,0,111,13.15,23.50,108.0
"2009-08-02 00:51:30",1114952,4.264,147.1,3.458,0.244,19.65,109.1338,22.67,23.66,30.84,0,111,13.15,23.50,109.1
"2009-08-02 00:52:00",1114953,3.82,154,2.949,0.252,19.69,109.1338,22.67,23.66,30.9,0,111,13.15,23.50,116.0
"2009-08-02 00:52:30",1114954,4.128,161.6,3.289,0.2,19.66,109.1338,22.67,23.67,30.89,0,111,13.15,23.50,123.6
"2009-08-02 00:53:00",1114955,4.434,166,2.87,0.149,19.7,109.1338,22.67,23.68,30.99,0,111,13.15,23.50,128.0
"2009-08-02 00:53:30",1114956,4.182,159.4,2.414,0.177,19.63,109.1338,22.67,23.68,30.62,0,111,13.15,23.50,121.4
"2009-08-02 00:54:00",1114957,4.595,160.6,2.037,0.148,19.66,109.1346,22.67,23.68,30.63,0,111,13.15,23.50,122.6
"2009-08-02 00:54:30",1114958,4.817,155.5,2.578,0.32,19.67,109.1346,22.67,23.68,30.58,0,111,13.15,23.50,117.5
"2009-08-02 00:55:00",1114959,4.73,153.9,4.143,0.275,19.65,109.1355,22.67,23.68,30.6,0,111,13.15,23.51,115.9
"2009-08-02 00:55:30",1114960,4.708,161.3,3.888,0.224,19.7,109.1361,22.68,23.68,30.47,0,111,13.15,23.51,123.3
"2009-08-02 00:56:00",1114961,4.626,155,3.054,0.112,19.68,109.1366,22.68,23.69,30.45,0,111,13.15,23.51,117.0
"2009-08-02 00:56:30",1114962,4.514,156.1,1.782,0.103,19.68,109.1394,22.68,23.68,30.32,0,111,13.15,23.52,118.1
"2009-08-02 00:57:00",1114963,4.566,158,2.149,0.054,19.71,109.142,22.69,23.69,30.23,0,111,13.15,23.52,120.0
"2009-08-02 00:57:30",1114964,4.356,156.2,1.743,0.104,19.7,109.1422,22.69,23.71,30.17,0,111,13.15,23.52,118.2
"2009-08-02 00:58:00",1114965,4.241,155.8,1.346,0.099,19.68,109.1448,22.7,23.7,30.2,0,111,13.15,23.53,117.8
"2009-08-02 00:58:30",1114966,4.237,156.1,0.835,0.173,19.71,109.1467,22.7,23.71,30.12,0,111,13.14,23.53,118.1
"2009-08-02 00:59:00",1114967,4.433,153.5,2.928,0.224,19.7,109.1484,22.71,23.7,30.09,0,111,13.14,23.54,115.5
"2009-08-02 00:59:30",1114968,4.43,153.3,2.033,0.152,19.7,109.1523,22.72,23.72,30.21,0,111,13.14,23.55,115.3
"2009-08-02 01:00:00",1114969,4.4,148.8,2.445,0.146,19.7,109.1554,22.73,23.7,30.42,0,111,13.14,23.56,110.8
"2009-08-02 01:00:30",1114970,4.351,146.8,2.324,0.128,19.73,109.1596,22.74,23.72,30.71,0,111,13.14,23.57,108.8
"2009-08-02 01:01:00",1114971,4.198,148.7,1.415,0.135,19.75,109.1622,22.74,23.71,30.56,0,111,13.14,23.57,110.7
"2009-08-02 01:01:30",1114972,4.577,142.7,4.126,0.226,19.78,109.1661,22.75,23.72,30.75,0,111,13.14,23.58,104.7
"2009-08-02 01:02:00",1114973,4.386,144.4,3.584,0.181,19.76,109.1672,22.76,23.72,30.5,0,111,13.14,23.59,106.4
"2009-08-02 01:02:30",1114974,4.114,147.6,1.989,0.169,19.78,109.1675,22.76,23.72,30.29,0,111,13.14,23.59,109.6
"2009-08-02 01:03:00",1114975,3.772,149.7,3.171,0.248,19.79,109.1675,22.76,23.74,30.72,0,111,13.14,23.59,111.7
"2009-08-02 01:03:30",1114976,3.794,151.1,2.044,0.172,19.75,109.1675,22.76,23.74,30.69,0,111,13.15,23.59,113.1
"2009-08-02 01:04:00",1114977,3.78,152.4,2.602,0.166,19.75,109.1675,22.76,23.74,30.34,0,111,13.15,23.59,114.4
"2009-08-02 01:04:30",1114978,3.937,153.4,2.156,0.145,19.73,109.1675,22.76,23.76,30.38,0,111,13.15,23.59,115.4
"2009-08-02 01:05:00",1114979,4.092,150.4,4.031,0.172,19.75,109.1675,22.76,23.75,30.51,0,111,13.15,23.59,112.4
"2009-08-02 01:05:30",1114980,3.894,147.3,2.691,0.14,19.76,109.1675,22.76,23.75,30.78,0,111,13.15,23.59,109.3
"2009-08-02 01:06:00",1114981,4.045,145.2,1.527,0.111,19.73,109.1675,22.76,23.76,30.6,0,111,13.15,23.59,107.2
"2009-08-02 01:06:30",1114982,3.839,155,4.673,0.272,19.76,109.1675,22.76,23.77,30.74,0,111,13.15,23.59,117.0
"2009-08-02 01:07:00",1114983,3.778,148.7,1.806,0.193,19.72,109.1678,22.76,23.77,30.9,0,111,13.15,23.59,110.7
"2009-08-02 01:07:30",1114984,4.229,149.4,2.082,0.195,19.75,109.1695,22.76,23.78,31.02,0,111,13.15,23.59,111.4
"2009-08-02 01:08:00",1114985,3.905,146.1,2.525,0.292,19.76,109.1748,22.77,23.78,31.14,0,111,13.15,23.61,108.1
"2009-08-02 01:08:30",1114986,3.844,151.1,3.945,0.2,19.82,109.1759,22.78,23.79,31.34,0,111,13.15,23.61,113.1
"2009-08-02 01:09:00",1114987,3.762,155.7,7.268,0.224,19.79,109.179,22.79,23.78,31.3,0,111,13.15,23.62,117.7
"2009-08-02 01:09:30",1114988,4.208,151,1.467,0.149,19.74,109.1818,22.79,23.79,31.04,0,111,13.15,23.62,113.0
"2009-08-02 01:10:00",1114989,3.92,156.5,6.737,0.122,19.76,109.1841,22.8,23.8,30.8,0,111,13.15,23.63,118.5
"2009-08-02 01:10:30",1114990,3.82,160.7,4.138,0.273,19.76,109.1799,22.79,23.81,30.9,0,111,13.15,23.62,122.7
"2009-08-02 01:11:00",1114991,3.388,160.5,3.418,0.166,19.75,109.1776,22.78,23.81,31.15,0,111,13.15,23.61,122.5
"2009-08-02 01:11:30",1114992,3.786,164.7,2.438,0.194,19.76,109.174,22.77,23.8,31.2,0,111,13.15,23.60,126.7
"2009-08-02 01:12:00",1114993,3.767,163.1,3.092,0.217,19.76,109.1706,22.76,23.8,31,0,111,13.15,23.60,125.1
"2009-08-02 01:12:30",1114994,3.41,154.1,4.943,0.371,19.72,109.1681,22.76,23.8,31.11,0,111,13.15,23.59,116.1
"2009-08-02 01:13:00",1114995,3.965,153.3,1.394,0.134,19.75,109.1675,22.76,23.81,30.97,0,111,13.15,23.59,115.3
"2009-08-02 01:13:30",1114996,4.27,151.6,0.721,0.066,19.67,109.1675,22.76,23.8,30.72,0,111,13.15,23.59,113.6
"2009-08-02 01:14:00",1114997,4.086,153.3,2.607,0.146,19.75,109.1675,22.76,23.79,30.72,0,111,13.15,23.59,115.3
"2009-08-02 01:14:30",1114998,4.118,148.4,1.236,0.171,19.76,109.1675,22.76,23.79,30.88,0,111,13.15,23.59,110.4
"2009-08-02 01:15:00",1114999,4.201,150.6,1.094,0.057,19.78,109.1675,22.76,23.78,30.72,0,111,13.15,23.59,112.6
"2009-08-02 01:15:30",1115000,4.167,152.1,1.13,0.075,19.79,109.1675,22.76,23.8,30.65,0,111,13.15,23.59,114.1
"2009-08-02 01:16:00",1115001,4.313,154.5,1.376,0.091,19.8,109.1675,22.76,23.78,30.61,0,111,13.15,23.59,116.5
"2009-08-02 01:16:30",1115002,4.413,154.1,1.384,0.063,19.79,109.1675,22.76,23.77,30.56,0,111,13.14,23.59,116.1
"2009-08-02 01:17:00",1115003,4.235,156.1,1.612,0.108,19.81,109.1667,22.75,23.77,30.53,0,111,13.14,23.59,118.1
"2009-08-02 01:17:30",1115004,4.072,152.9,1.817,0.125,19.86,109.1622,22.74,23.77,30.56,0,111,13.14,23.57,114.9
"2009-08-02 01:18:00",1115005,4.104,154.3,1.611,0.121,19.81,109.1504,22.71,23.76,30.58,0,111,13.14,23.54,116.3
"2009-08-02 01:18:30",1115006,3.785,155.4,1.291,0.065,19.82,109.1459,22.7,23.77,30.59,0,111,13.14,23.53,117.4
"2009-08-02 01:19:00",1115007,3.871,156.2,1.872,0.073,19.83,109.142,22.69,23.75,30.59,0,111,13.15,23.52,118.2
"2009-08-02 01:19:30",1115008,3.944,154,2.429,0.12,19.82,109.1384,22.68,23.75,30.6,0,111,13.14,23.51,116.0
"2009-08-02 01:20:00",1115009,4.057,158.3,2.88,0.08,19.83,109.1365,22.68,23.75,30.81,0,111,13.15,23.51,120.3
"2009-08-02 01:20:30",1115010,3.855,156.2,2.06,0.138,19.79,109.1359,22.68,23.73,31.2,0,111,13.15,23.51,118.2
"2009-08-02 01:21:00",1115011,3.963,157.1,2.245,0.077,19.81,109.1359,22.68,23.74,30.87,0,111,13.15,23.51,119.1
"2009-08-02 01:21:30",1115012,3.96,154.6,1.752,0.217,19.82,109.1378,22.68,23.73,30.98,0,111,13.15,23.51,116.6
"2009-08-02 01:22:00",1115013,4.162,153.6,1.121,0.064,19.81,109.1399,22.69,23.73,31.09,0,111,13.15,23.52,115.6
"2009-08-02 01:22:30",1115014,4,154.5,1.224,0.074,19.86,109.1393,22.68,23.73,31.02,0,111,13.15,23.51,116.5
"2009-08-02 01:23:00",1115015,3.801,154.9,0.899,0.053,19.87,109.1412,22.69,23.72,30.95,0,111,13.15,23.52,116.9
"2009-08-02 01:23:30",1115016,3.844,156.1,2.471,0.101,19.84,109.1437,22.69,23.72,30.96,0,111,13.15,23.53,118.1
"2009-08-02 01:24:00",1115017,3.923,157.8,0.862,0.059,19.82,109.1389,22.68,23.71,31.04,0,111,13.15,23.51,119.8
"2009-08-02 01:24:30",1115018,4.115,158.3,0.966,0.136,19.85,109.1407,22.69,23.71,31.09,0,111,13.15,23.52,120.3
"2009-08-02 01:25:00",1115019,4.143,158.4,1.326,0.13,19.86,109.1349,22.67,23.72,31.23,0,111,13.15,23.50,120.4
"2009-08-02 01:25:30",1115020,4.221,158,1.212,0.1,19.85,109.1284,22.66,23.7,31.32,0,111,13.15,23.49,120.0
"2009-08-02 01:26:00",1115021,4.027,156.6,2.337,0.075,19.87,109.127,22.65,23.69,31.45,0,111,13.15,23.48,118.6
"2009-08-02 01:26:30",1115022,4.221,149.5,1.088,0.063,19.85,109.1242,22.64,23.68,31.44,0,111,13.15,23.48,111.5
"2009-08-02 01:27:00",1115023,4.104,152.7,1.434,0.053,19.85,109.127,22.65,23.69,31.44,0,111,13.15,23.48,114.7
"2009-08-02 01:27:30",1115024,4.069,150.6,0.529,0.082,19.82,109.1261,22.65,23.69,31.52,0,111,13.15,23.48,112.6
"2009-08-02 01:28:00",1115025,4.202,149.8,1.071,0.067,19.85,109.1271,22.65,23.67,31.37,0,111,13.15,23.48,111.8
"2009-08-02 01:28:30",1115026,4.158,151.6,2.197,0.085,19.83,109.1274,22.65,23.67,31.42,0,111,13.15,23.48,113.6
"2009-08-02 01:29:00",1115027,4.11,148.8,1.266,0.095,19.85,109.1277,22.65,23.67,31.29,0,111,13.15,23.48,110.8
"2009-08-02 01:29:30",1115028,4.024,149.6,0.617,0.092,19.81,109.1283,22.66,23.65,31.21,0,111,13.15,23.49,111.6
"2009-08-02 01:30:00",1115029,4.08,149.3,0.687,0.058,19.82,109.1274,22.65,23.64,31.43,0,111,13.16,23.48,111.3
"2009-08-02 01:30:30",1115030,4.111,149.8,0.778,0.046,19.85,109.1269,22.65,23.64,31.33,0,111,13.16,23.48,111.8
"2009-08-02 01:31:00",1115031,4.013,150.6,1.037,0.077,19.84,109.1237,22.64,23.64,31.28,0,111,13.16,23.47,112.6
"2009-08-02 01:31:30",1115032,4.198,150.1,1.004,0.063,19.89,109.1137,22.62,23.63,31.27,0,111,13.16,23.45,112.1
"2009-08-02 01:32:00",1115033,4.252,149.7,0.726,0.05,19.9,109.112,22.61,23.63,31.42,0,111,13.16,23.44,111.7
"2009-08-02 01:32:30",1115034,4.195,149.6,0.8,0.042,19.92,109.1049,22.6,23.63,31.55,0,111,13.15,23.43,111.6
"2009-08-02 01:33:00",1115035,4.209,150.5,1.006,0.057,19.91,109.0998,22.58,23.63,31.41,0,111,13.15,23.41,112.5
"2009-08-02 01:33:30",1115036,4.322,151.1,0.8,0.043,19.92,109.1016,22.59,23.62,31.37,0,111,13.15,23.42,113.1
"2009-08-02 01:34:00",1115037,4.299,151.5,1.189,0.038,19.92,109.1022,22.59,23.59,31.49,0,111,13.15,23.42,113.5
"2009-08-02 01:34:30",1115038,4.299,151.6,0.688,0.052,19.93,109.1026,22.59,23.6,31.47,0,111,13.15,23.42,113.6
"2009-08-02 01:35:00",1115039,4.28,151.1,1.001,0.081,19.96,109.1026,22.59,23.58,31.53,0,111,13.15,23.42,113.1
"2009-08-02 01:35:30",1115040,4.259,151.8,0.603,0.05,19.94,109.102,22.59,23.57,31.53,0,111,13.15,23.42,113.8
"2009-08-02 01:36:00",1115041,4.308,151.1,1,0.054,19.96,109.0925,22.56,23.57,31.43,0,111,13.15,23.39,113.1
"2009-08-02 01:36:30",1115042,4.211,152.1,1.131,0.045,19.95,109.0891,22.55,23.57,31.39,0,111,13.15,23.39,114.1
"2009-08-02 01:37:00",1115043,4.199,150.8,1.031,0.069,19.99,109.0759,22.52,23.56,31.59,0,111,13.15,23.35,112.8
"2009-08-02 01:37:30",1115044,4.054,150.4,0.488,0.076,19.89,109.0695,22.5,23.54,31.53,0,111,13.15,23.34,112.4
"2009-08-02 01:38:00",1115045,4.139,150.7,0.546,0.073,19.95,109.0695,22.5,23.53,31.36,0,111,13.15,23.34,112.7
"2009-08-02 01:38:30",1115046,3.998,150.8,0.674,0.039,19.85,109.0695,22.5,23.52,31.29,0,111,13.16,23.34,112.8
"2009-08-02 01:39:00",1115047,3.915,151.5,0.791,0.038,19.92,109.0695,22.5,23.52,31.25,0,111,13.16,23.34,113.5
"2009-08-02 01:39:30",1115048,4.1,151.8,1.832,0.109,19.94,109.0695,22.5,23.52,31.37,0,111,13.16,23.34,113.8
"2009-08-02 01:40:00",1115049,3.871,147.9,0.649,0.083,20,109.0666,22.5,23.51,31.29,0,111,13.16,23.33,109.9
"2009-08-02 01:40:30",1115050,3.823,150.1,1.138,0.037,20.02,109.0568,22.47,23.5,31.27,0,111,13.16,23.30,112.1
"2009-08-02 01:41:00",1115051,3.774,151.7,1.044,0.046,20.04,109.0459,22.44,23.49,31.19,0,111,13.16,23.27,113.7
"2009-08-02 01:41:30",1115052,3.99,150.3,0.697,0.117,19.95,109.038,22.42,23.48,31.31,0,111,13.16,23.25,112.3
"2009-08-02 01:42:00",1115053,4.119,151.8,0.835,0.041,20.02,109.0357,22.42,23.46,31.44,0,111,13.16,23.25,113.8
"2009-08-02 01:42:30",1115054,4.037,150.8,0.398,0.065,19.91,109.0357,22.42,23.46,31.51,0,111,13.16,23.25,112.8
"2009-08-02 01:43:00",1115055,3.854,152.3,0.801,0.075,20,109.0357,22.42,23.45,31.5,0,111,13.16,23.25,114.3
"2009-08-02 01:43:30",1115056,3.72,152.1,0.876,0.054,20.05,109.0357,22.42,23.45,31.51,0,111,13.16,23.25,114.1
"2009-08-02 01:44:00",1115057,3.705,152.6,1.092,0.069,20.07,109.0354,22.42,23.43,31.52,0,111,13.16,23.25,114.6
"2009-08-02 01:44:30",1115058,3.725,154.3,1.644,0.075,20.05,109.031,22.41,23.43,31.37,0,111,13.16,23.24,116.3
"2009-08-02 01:45:00",1115059,3.598,155.4,0.964,0.051,20.06,109.0251,22.39,23.41,31.54,0,111,13.16,23.22,117.4
"2009-08-02 01:45:30",1115060,3.692,155.6,0.977,0.075,20.05,109.0194,22.38,23.41,31.48,0,111,13.16,23.21,117.6
"2009-08-02 01:46:00",1115061,3.71,156,1.034,0.06,20.06,109.0082,22.35,23.4,31.67,0,110.9,13.16,23.18,118.0
"2009-08-02 01:46:30",1115062,3.493,155.3,0.894,0.054,20.1,109.0023,22.33,23.4,31.55,0,111,13.16,23.16,117.3
"2009-08-02 01:47:00",1115063,3.635,159,2.076,0.096,20.09,109.002,22.33,23.39,31.51,0,111,13.16,23.16,121.0
"2009-08-02 01:47:30",1115064,3.709,160.2,2.174,0.057,20.04,109.002,22.33,23.37,31.73,0,111,13.16,23.16,122.2
"2009-08-02 01:48:00",1115065,3.553,163.5,2.253,0.061,20.12,109.0029,22.33,23.38,31.82,0,110.9,13.16,23.16,125.5